START_TIME,STEP,MOV.,H8,t_acc.,H43,t_acc.,M25,t_acc.,H9,t_acc.
1979-07-27 18:00:28.740 ,0,1,0.,12.0,0.,12.0,0.,12.0,0.,12.0
1979-07-27 18:00:40.740 ,0,1,0.,12.0,0.,12.0,0.,12.0,0.,12.0
1979-07-27 18:00:52.740 ,4,1,0.,12.0,0.,12.0,0.,12.0,0.,12.0
1979-07-27 18:01:04.740 ,4,1,0.,12.0,0.,12.0,0.,12.0,0.,12.0
1979-07-27 18:01:16.740 ,7,1,0.,12.0,0.,12.0,0.,12.0,0.,12.0
1979-07-27 18:01:28.740 ,7,1,0.,12.0,0.,12.0,0.,12.0,0.,12.0
1979-07-27 18:01:40.740 ,3,1,0.,12.0,0.,12.0,0.,12.0,0.,12.0
1979-07-27 18:01:52.740 ,3,1,0.,12.0,0.,12.0,0.,12.0,0.,12.0
1979-07-27 18:02:04.740 ,0,1,0.,12.0,0.,12.0,0.,12.0,0.,12.0
1979-07-27 18:02:16.740 ,0,1,0.,12.0,0.,12.0,0.,12.0,0.,12.0
1979-07-27 18:02:28.740 ,4,1,0.,12.0,0.,12.0,0.,12.0,0.,12.0
1979-07-27 18:02:40.740 ,4,1,0.,12.0,0.,12.0,0.,12.0,0.,12.0
1979-07-27 18:02:52.740 ,7,1,0.,12.0,0.,12.0,0.,12.0,0.,12.0
1979-07-27 18:03:04.740 ,7,1,0.,12.0,0.,12.0,0.,12.0,0.,12.0
1979-07-27 18:03:16.740 ,3,1,0.,12.0,0.,12.0,0.,12.0,0.,12.0
1979-07-27 18:03:28.740 ,3,1,0.,12.0,0.,12.0,0.,12.0,0.,12.0
1979-07-27 18:03:40.740 ,0,1,0.,12.0,0.,12.0,0.,12.0,0.,12.0
1979-07-27 18:03:52.740 ,0,1,0.,12.0,0.,12.0,0.,12.0,0.,12.0
1979-07-27 18:04:04.740 ,4,1,0.,12.0,0.,12.0,0.,12.0,0.,12.0
1979-07-27 18:04:16.740 ,4,1,0.,12.0,0.,12.0,0.,12.0,0.,12.0
1979-07-27 18:04:28.740 ,7,1,0.,12.0,0.,12.0,0.,12.0,0.,12.0
1979-07-27 18:04:40.740 ,7,1,0.,12.0,0.,12.0,0.,12.0,0.,12.0
1979-07-27 18:04:52.740 ,3,1,0.,12.0,0.,12.0,0.,12.0,0.,12.0
1979-07-27 18:05:04.740 ,3,1,0.,12.0,0.,12.0,0.,12.0,0.,12.0
1979-07-27 18:05:16.740 ,0,1,0.,12.0,0.,12.0,0.,12.0,0.,12.0
1979-07-27 18:05:28.740 ,0,1,0.,12.0,0.,12.0,0.,12.0,0.,12.0
1979-07-27 18:05:40.740 ,0,0,0.,12.0,0.,12.0,0.,12.0,0.,12.0
1979-07-27 18:05:52.740 ,0,0,0.,12.0,0.,12.0,0.,12.0,0.,12.0
1979-07-27 18:06:04.740 ,0,0,0.,12.0,0.,12.0,0.,12.0,0.,12.0
1979-07-27 18:06:16.740 ,0,0,0.,12.0,0.,12.0,0.,12.0,0.,12.0
1979-07-27 18:06:28.740 ,5,0,0.,12.0,0.,12.0,0.,12.0,0.,12.0
1979-07-27 18:06:40.740 ,5,0,0.,12.0,0.,12.0,0.,12.0,0.,12.0
1979-07-27 18:06:52.740 ,5,0,0.,12.0,0.,12.0,0.,12.0,0.,12.0
1979-07-27 18:07:04.740 ,5,0,0.,12.0,0.,12.0,0.,12.0,0.,12.0
1979-07-27 18:07:16.740 ,4,0,0.,12.0,0.,12.0,0.,12.0,0.,12.0
1979-07-27 18:07:28.740 ,4,0,0.,12.0,0.,12.0,0.,12.0,0.,12.0
1979-07-27 18:07:40.740 ,4,0,0.,12.0,0.,12.0,0.,12.0,0.,12.0
1979-07-27 18:07:52.740 ,4,0,0.,12.0,0.,12.0,0.,12.0,0.,12.0
1979-07-27 18:08:04.740 ,3,0,0.,12.0,0.,12.0,0.,12.0,0.,12.0
1979-07-27 18:08:16.740 ,3,0,0.,12.0,0.,12.0,0.,12.0,0.,12.0
1979-07-27 18:08:28.740 ,3,0,0.,12.0,0.,12.0,0.,12.0,0.,12.0
1979-07-27 18:08:40.740 ,3,0,0.,12.0,0.,12.0,0.,12.0,0.,12.0
1979-07-27 18:08:52.740 ,2,0,0.,12.0,0.,12.0,0.,12.0,0.,12.0
1979-07-27 18:09:04.740 ,2,0,0.,12.0,0.,12.0,0.,12.0,0.,12.0
1979-07-27 18:09:16.740 ,2,0,0.,12.0,0.,12.0,0.,12.0,0.,12.0
1979-07-27 18:09:28.740 ,2,0,0.,12.0,0.,12.0,0.,12.0,0.,12.0
1979-07-27 18:09:40.740 ,1,0,0.,12.0,0.,12.0,0.,12.0,0.,12.0
1979-07-27 18:09:52.740 ,1,0,0.,12.0,0.,12.0,0.,12.0,0.,12.0
1979-07-27 18:10:04.740 ,1,0,0.,12.0,0.,12.0,0.,12.0,0.,12.0
1979-07-27 18:10:16.740 ,1,0,0.,12.0,0.,12.0,0.,12.0,0.,12.0
1979-07-27 18:10:28.740 ,0,0,0.,12.0,0.,12.0,0.,12.0,0.,12.0
1979-07-27 18:10:40.740 ,0,0,0.,12.0,0.,12.0,0.,12.0,0.,12.0
1979-07-27 18:10:52.740 ,0,0,0.,12.0,0.,12.0,0.,12.0,0.,12.0
1979-07-27 18:11:04.740 ,0,0,0.,12.0,0.,12.0,0.,12.0,0.,12.0
1979-07-27 18:11:16.740 ,0,0,0.,12.0,0.,12.0,0.,12.0,0.,12.0
1979-07-27 18:11:28.740 ,0,0,0.,12.0,0.,12.0,0.,12.0,0.,12.0
1979-07-27 18:11:40.740 ,0,0,0.,12.0,0.,12.0,0.,12.0,0.,12.0
1979-07-27 18:11:52.740 ,0,0,0.,12.0,0.,12.0,0.,12.0,0.,12.0
1979-07-27 18:12:04.740 ,1,0,0.,12.0,0.,12.0,0.,12.0,0.,12.0
1979-07-27 18:12:16.740 ,1,0,0.,12.0,0.,12.0,0.,12.0,0.,12.0
1979-07-27 18:12:28.740 ,1,0,0.,12.0,0.,12.0,0.,12.0,0.,12.0
1979-07-27 18:12:40.740 ,1,0,0.,12.0,0.,12.0,0.,12.0,0.,12.0
1979-07-27 18:12:52.740 ,2,0,0.,12.0,0.,12.0,0.,12.0,0.,12.0
1979-07-27 18:13:04.740 ,2,0,0.,12.0,0.,12.0,0.,12.0,0.,12.0
1979-07-27 18:13:16.740 ,2,0,0.,12.0,0.,12.0,0.,12.0,0.,12.0
1979-07-27 18:13:28.740 ,2,0,0.,12.0,0.,12.0,0.,12.0,0.,12.0
1979-07-27 18:13:40.740 ,3,0,0.,12.0,0.,12.0,0.,12.0,0.,12.0
1979-07-27 18:13:52.740 ,3,0,0.,12.0,0.,12.0,0.,12.0,0.,12.0
1979-07-27 18:14:04.740 ,3,0,0.,12.0,0.,12.0,0.,12.0,0.,12.0
1979-07-27 18:14:16.740 ,3,0,0.,12.0,0.,12.0,0.,12.0,0.,12.0
1979-07-27 18:14:28.740 ,4,0,0.,12.0,0.,12.0,0.,12.0,0.,12.0
1979-07-27 18:14:40.740 ,4,0,0.,12.0,0.,12.0,0.,12.0,0.,12.0
1979-07-27 18:14:52.740 ,4,0,0.,12.0,0.,12.0,0.,12.0,0.,12.0
1979-07-27 18:15:04.740 ,4,0,0.,12.0,0.,12.0,0.,12.0,0.,12.0
1979-07-27 18:15:16.740 ,5,0,0.,12.0,0.,12.0,0.,12.0,0.,12.0
1979-07-27 18:15:28.740 ,5,0,0.,12.0,0.,12.0,0.,12.0,0.,12.0
1979-07-27 18:15:40.740 ,5,0,0.,12.0,0.,12.0,0.,12.0,0.,12.0
1979-07-27 18:15:52.740 ,5,0,0.,12.0,0.,12.0,0.,12.0,0.,12.0
1979-07-27 18:16:04.740 ,6,0,0.,12.0,0.,12.0,0.,12.0,0.,12.0
1979-07-27 18:16:16.740 ,6,0,0.,12.0,0.,12.0,0.,12.0,0.,12.0
1979-07-27 18:16:28.740 ,6,0,0.,12.0,0.,12.0,0.,12.0,0.,12.0
1979-07-27 18:16:40.740 ,6,0,0.,12.0,0.,12.0,0.,12.0,0.,12.0
1979-07-27 18:16:52.740 ,7,0,0.,12.0,0.,12.0,0.,12.0,0.,12.0
1979-07-27 18:17:04.740 ,7,0,0.,12.0,0.,12.0,0.,12.0,0.,12.0
1979-07-27 18:17:16.740 ,7,0,0.,12.0,0.,12.0,0.,12.0,0.,12.0
1979-07-27 18:17:28.740 ,7,0,0.,12.0,0.,12.0,0.,12.0,0.,12.0
1979-07-27 18:17:40.740 ,7,0,0.,12.0,0.,12.0,0.,12.0,0.,12.0
1979-07-27 18:17:52.740 ,7,0,0.,12.0,0.,12.0,0.,12.0,0.,12.0
1979-07-27 18:18:04.740 ,7,0,0.,12.0,0.,12.0,0.,12.0,0.,12.0
1979-07-27 18:18:16.740 ,7,0,0.,12.0,0.,12.0,0.,12.0,0.,12.0
1979-07-27 18:18:28.740 ,6,0,0.,12.0,0.,12.0,0.,12.0,0.,12.0
1979-07-27 18:18:40.740 ,6,0,0.,12.0,0.,12.0,0.,12.0,0.,12.0
1979-07-27 18:18:52.740 ,6,0,0.,12.0,0.,12.0,0.,12.0,0.,12.0
1979-07-27 18:19:04.740 ,6,0,0.,12.0,0.,12.0,0.,12.0,0.,12.0
1979-07-27 18:19:16.740 ,5,0,0.,12.0,0.,12.0,0.,12.0,0.,12.0
1979-07-27 18:19:28.740 ,5,0,0.,12.0,0.,12.0,0.,12.0,0.,12.0
1979-07-27 18:19:40.740 ,5,0,0.,12.0,0.,12.0,0.,12.0,0.,12.0
1979-07-27 18:19:52.740 ,5,0,0.,12.0,0.,12.0,0.,12.0,0.,12.0
1979-07-27 18:20:04.740 ,4,0,0.,12.0,0.,12.0,0.,12.0,0.,12.0
1979-07-27 18:20:16.740 ,4,0,0.,12.0,0.,12.0,0.,12.0,0.,12.0
1979-07-27 18:20:28.740 ,4,0,0.,12.0,0.,12.0,0.,12.0,0.,12.0
1979-07-27 18:20:40.740 ,4,0,0.,12.0,0.,12.0,0.,12.0,0.,12.0
1979-07-27 18:20:52.740 ,3,0,0.,12.0,0.,12.0,0.,12.0,0.,12.0
1979-07-27 18:21:04.740 ,3,0,0.,12.0,0.,12.0,0.,12.0,0.,12.0
1979-07-27 18:21:16.740 ,3,0,0.,12.0,0.,12.0,0.,12.0,0.,12.0
1979-07-27 18:21:28.740 ,3,0,0.,12.0,0.,12.0,0.,12.0,0.,12.0
1979-07-27 18:21:40.740 ,2,0,0.,12.0,0.,12.0,0.,12.0,0.,12.0
1979-07-27 18:21:52.740 ,2,0,0.,12.0,0.,12.0,0.,12.0,0.,12.0
1979-07-27 18:22:04.740 ,2,0,0.,12.0,0.,12.0,0.,12.0,0.,12.0
1979-07-27 18:22:16.740 ,2,0,0.,12.0,0.,12.0,0.,12.0,0.,12.0
1979-07-27 18:22:28.740 ,1,0,0.,12.0,0.,12.0,0.,12.0,0.,12.0
1979-07-27 18:22:40.740 ,1,0,0.,12.0,0.,12.0,0.,12.0,0.,12.0
1979-07-27 18:22:52.740 ,1,0,0.,12.0,0.,12.0,0.,12.0,0.,12.0
1979-07-27 18:23:04.740 ,1,0,0.,12.0,0.,12.0,0.,12.0,0.,12.0
1979-07-27 18:23:16.740 ,0,0,0.,12.0,0.,12.0,0.,12.0,0.,12.0
1979-07-27 18:23:28.740 ,0,0,0.,12.0,0.,12.0,0.,12.0,0.,12.0
1979-07-27 18:23:40.740 ,0,0,0.,12.0,0.,12.0,0.,12.0,0.,12.0
1979-07-27 18:23:52.740 ,0,0,0.,12.0,0.,12.0,0.,12.0,0.,12.0
1979-07-27 18:24:04.740 ,0,0,0.,12.0,0.,12.0,0.,12.0,0.,12.0
1979-07-27 18:24:16.740 ,0,0,0.,12.0,0.,12.0,0.,12.0,0.,12.0
1979-07-27 18:24:28.740 ,0,0,0.,12.0,0.,12.0,0.,12.0,0.,12.0
1979-07-27 18:24:40.740 ,0,0,0.,12.0,0.,12.0,0.,12.0,0.,12.0
1979-07-27 18:24:52.740 ,1,0,0.,12.0,0.,12.0,0.,12.0,0.,12.0
1979-07-27 18:25:04.740 ,1,0,0.,12.0,0.,12.0,0.,12.0,0.,12.0
1979-07-27 18:25:16.740 ,1,0,0.,12.0,0.,12.0,0.,12.0,0.,12.0
1979-07-27 18:25:28.740 ,1,0,0.,12.0,0.,12.0,0.,12.0,0.,12.0
1979-07-27 18:25:40.740 ,2,0,0.,12.0,0.,12.0,0.,12.0,0.,12.0
1979-07-27 18:25:52.740 ,2,0,0.,12.0,0.,12.0,0.,12.0,0.,12.0
1979-07-27 18:26:04.740 ,2,0,0.,12.0,0.,12.0,0.,12.0,0.,12.0
1979-07-27 18:26:16.740 ,2,0,0.,12.0,0.,12.0,0.,12.0,0.,12.0
1979-07-27 18:26:28.740 ,3,0,0.,12.0,0.,12.0,0.,12.0,0.,12.0
1979-07-27 18:26:40.740 ,3,0,0.,12.0,0.,12.0,0.,12.0,0.,12.0
1979-07-27 18:26:52.740 ,3,0,0.,12.0,0.,12.0,0.,12.0,0.,12.0
1979-07-27 18:27:04.740 ,3,0,0.,12.0,0.,12.0,0.,12.0,0.,12.0
1979-07-27 18:27:16.740 ,4,0,0.,12.0,0.,12.0,0.,12.0,0.,12.0
1979-07-27 18:27:28.740 ,4,0,0.,12.0,0.,12.0,0.,12.0,0.,12.0
1979-07-27 18:27:40.740 ,4,0,0.,12.0,0.,12.0,0.,12.0,0.,12.0
1979-07-27 18:27:52.740 ,4,0,0.,12.0,0.,12.0,0.,12.0,0.,12.0
1979-07-27 18:28:04.740 ,5,0,0.,12.0,0.,12.0,0.,12.0,0.,12.0
1979-07-27 18:28:16.740 ,5,0,0.,12.0,0.,12.0,0.,12.0,0.,12.0
1979-07-27 18:28:28.740 ,5,0,0.,12.0,0.,12.0,0.,12.0,0.,12.0
1979-07-27 18:28:40.740 ,5,0,0.,12.0,0.,12.0,0.,12.0,0.,12.0
1979-07-27 18:28:52.740 ,6,0,0.,12.0,0.,12.0,0.,12.0,0.,12.0
1979-07-27 18:29:04.740 ,6,0,0.,12.0,0.,12.0,0.,12.0,0.,12.0
1979-07-27 18:29:16.740 ,6,0,0.,12.0,0.,12.0,0.,12.0,0.,12.0
1979-07-27 18:29:28.740 ,6,0,0.,12.0,0.,12.0,0.,12.0,0.,12.0
1979-07-27 18:29:40.740 ,7,0,0.,12.0,0.,12.0,0.,12.0,0.,12.0
1979-07-27 18:29:52.740 ,7,0,0.,12.0,0.,12.0,0.,12.0,0.,12.0
1979-07-27 18:30:04.740 ,7,0,0.,12.0,0.,12.0,0.,12.0,0.,12.0
1979-07-27 18:30:16.740 ,7,0,0.,12.0,0.,12.0,0.,12.0,0.,12.0
1979-07-27 18:30:28.740 ,7,0,0.,12.0,0.,12.0,0.,12.0,0.,12.0
1979-07-27 18:30:40.740 ,7,0,0.,12.0,0.,12.0,0.,12.0,0.,12.0
1979-07-27 18:30:52.740 ,7,0,0.,12.0,0.,12.0,0.,12.0,0.,12.0
1979-07-27 18:31:04.740 ,7,0,0.,12.0,0.,12.0,0.,12.0,0.,12.0
1979-07-27 18:31:16.740 ,6,0,0.,12.0,0.,12.0,0.,12.0,0.,12.0
1979-07-27 18:31:28.740 ,6,0,0.,12.0,0.,12.0,0.,12.0,0.,12.0
1979-07-27 18:31:40.740 ,6,0,0.,12.0,0.,12.0,0.,12.0,0.,12.0
1979-07-27 18:31:52.740 ,6,0,0.,12.0,0.,12.0,0.,12.0,0.,12.0
1979-07-27 18:32:04.740 ,5,0,0.,12.0,0.,12.0,0.,12.0,0.,12.0
1979-07-27 18:32:16.740 ,5,0,0.,12.0,0.,12.0,0.,12.0,0.,12.0
1979-07-27 18:32:28.740 ,5,0,0.,12.0,0.,12.0,0.,12.0,0.,12.0
1979-07-27 18:32:40.740 ,5,0,0.,12.0,0.,12.0,0.,12.0,0.,12.0
1979-07-27 18:32:52.740 ,4,0,0.,12.0,0.,12.0,0.,12.0,0.,12.0
1979-07-27 18:33:04.740 ,4,0,0.,12.0,0.,12.0,0.,12.0,0.,12.0
1979-07-27 18:33:16.740 ,4,0,0.,12.0,0.,12.0,0.,12.0,0.,12.0
1979-07-27 18:33:28.740 ,4,0,0.,12.0,0.,12.0,0.,12.0,0.,12.0
1979-07-27 18:33:40.740 ,3,0,0.,12.0,0.,12.0,0.,12.0,0.,12.0
1979-07-27 18:33:52.740 ,3,0,0.,12.0,0.,12.0,0.,12.0,0.,12.0
1979-07-27 18:34:04.740 ,3,0,0.,12.0,0.,12.0,0.,12.0,0.,12.0
1979-07-27 18:34:16.740 ,3,0,0.,12.0,0.,12.0,0.,12.0,0.,12.0
1979-07-27 18:34:28.740 ,2,0,0.,12.0,0.,12.0,0.,12.0,0.,12.0
1979-07-27 18:34:40.740 ,2,0,0.,12.0,0.,12.0,0.,12.0,0.,12.0
1979-07-27 18:34:52.740 ,2,0,0.,12.0,0.,12.0,0.,12.0,0.,12.0
1979-07-27 18:35:04.740 ,2,0,0.,12.0,0.,12.0,0.,12.0,0.,12.0
1979-07-27 18:35:16.740 ,1,0,0.,12.0,0.,12.0,0.,12.0,0.,12.0
1979-07-27 18:35:28.740 ,1,0,0.,12.0,0.,12.0,0.,12.0,0.,12.0
1979-07-27 18:35:40.740 ,1,0,0.,12.0,0.,12.0,0.,12.0,0.,12.0
1979-07-27 18:35:52.740 ,1,0,0.,12.0,0.,12.0,0.,12.0,0.,12.0
1979-07-27 18:36:04.740 ,0,0,0.,12.0,0.,12.0,0.,12.0,0.,12.0
1979-07-27 18:36:16.740 ,0,0,0.,12.0,0.,12.0,0.,12.0,0.,12.0
1979-07-27 18:36:28.740 ,0,0,0.,12.0,0.,12.0,0.,12.0,0.,12.0
1979-07-27 18:36:40.740 ,0,0,0.,12.0,0.,12.0,0.,12.0,0.,12.0
1979-07-27 18:36:52.740 ,0,0,0.,12.0,0.,12.0,0.,12.0,0.,12.0
1979-07-27 18:37:04.740 ,0,0,0.,12.0,0.,12.0,0.,12.0,0.,12.0
1979-07-27 18:37:16.740 ,0,0,0.,12.0,0.,12.0,0.,12.0,0.,12.0
1979-07-27 18:37:28.740 ,0,0,0.,12.0,0.,12.0,0.,12.0,0.,12.0
1979-07-27 18:37:40.740 ,1,0,0.,12.0,0.,12.0,0.,12.0,0.,12.0
1979-07-27 18:37:52.740 ,1,0,0.,12.0,0.,12.0,0.,12.0,0.,12.0
1979-07-27 18:38:04.740 ,1,0,0.,12.0,0.,12.0,0.,12.0,0.,12.0
1979-07-27 18:38:16.740 ,1,0,0.,12.0,0.,12.0,0.,12.0,0.,12.0
1979-07-27 18:38:28.740 ,2,0,0.,12.0,0.,12.0,0.,12.0,0.,12.0
1979-07-27 18:38:40.740 ,2,0,0.,12.0,0.,12.0,0.,12.0,0.,12.0
1979-07-27 18:38:52.740 ,2,0,0.,12.0,0.,12.0,0.,12.0,0.,12.0
1979-07-27 18:39:04.740 ,2,0,0.,12.0,0.,12.0,0.,12.0,0.,12.0
1979-07-27 18:39:16.740 ,3,0,0.,12.0,0.,12.0,0.,12.0,0.,12.0
1979-07-27 18:39:28.740 ,3,0,0.,12.0,0.,12.0,0.,12.0,0.,12.0
1979-07-27 18:39:40.740 ,3,0,0.,12.0,0.,12.0,0.,12.0,0.,12.0
1979-07-27 18:39:52.740 ,3,0,0.,12.0,0.,12.0,0.,12.0,0.,12.0
1979-07-27 18:40:04.740 ,4,0,0.,12.0,0.,12.0,0.,12.0,0.,12.0
1979-07-27 18:40:16.740 ,4,0,0.,12.0,0.,12.0,0.,12.0,0.,12.0
1979-07-27 18:40:28.740 ,4,0,0.,12.0,0.,12.0,0.,12.0,0.,12.0
1979-07-27 18:40:40.740 ,4,0,0.,12.0,0.,12.0,0.,12.0,0.,12.0
1979-07-27 18:40:52.740 ,5,0,0.,12.0,0.,12.0,0.,12.0,0.,12.0
1979-07-27 18:41:04.740 ,5,0,0.,12.0,0.,12.0,0.,12.0,0.,12.0
1979-07-27 18:41:16.740 ,5,0,0.,12.0,0.,12.0,0.,12.0,0.,12.0
1979-07-27 18:41:28.740 ,5,0,0.,12.0,0.,12.0,0.,12.0,0.,12.0
1979-07-27 18:41:40.740 ,6,0,0.,12.0,0.,12.0,0.,12.0,0.,12.0
1979-07-27 18:41:52.740 ,6,0,0.,12.0,0.,12.0,0.,12.0,0.,12.0
1979-07-27 18:42:04.740 ,6,0,0.,12.0,0.,12.0,0.,12.0,0.,12.0
1979-07-27 18:42:16.740 ,6,0,0.,12.0,0.,12.0,0.,12.0,0.,12.0
1979-07-27 18:42:28.740 ,7,0,0.,12.0,0.,12.0,0.,12.0,0.,12.0
1979-07-27 18:42:40.740 ,7,0,0.,12.0,0.,12.0,0.,12.0,0.,12.0
1979-07-27 18:42:52.740 ,7,0,0.,12.0,0.,12.0,0.,12.0,0.,12.0
1979-07-27 18:43:04.740 ,7,0,0.,12.0,0.,12.0,0.,12.0,0.,12.0
1979-07-27 18:43:16.740 ,3,1,0.,12.0,0.,12.0,0.,12.0,0.,12.0
1979-07-27 18:43:28.740 ,3,1,0.,12.0,0.,12.0,0.,12.0,0.,12.0
1979-07-27 18:43:40.740 ,0,1,0.,12.0,0.,12.0,0.,12.0,0.,12.0
1979-07-27 18:43:52.740 ,0,1,0.,12.0,0.,12.0,0.,12.0,0.,12.0
1979-07-27 18:44:04.740 ,4,1,0.,12.0,0.,12.0,0.,12.0,0.,12.0
1979-07-27 18:44:16.740 ,4,1,0.,12.0,0.,12.0,0.,12.0,0.,12.0
1979-07-27 18:44:28.740 ,7,1,0.,12.0,0.,12.0,0.,12.0,0.,12.0
1979-07-27 18:44:40.740 ,7,1,0.,12.0,0.,12.0,0.,12.0,0.,12.0
1979-07-27 18:44:52.740 ,3,1,0.,12.0,0.,12.0,0.,12.0,0.,12.0
1979-07-27 18:45:04.740 ,3,1,0.,12.0,0.,12.0,0.,12.0,0.,12.0
1979-07-27 18:45:16.740 ,0,1,0.,12.0,0.,12.0,0.,12.0,0.,12.0
1979-07-27 18:45:28.740 ,0,1,0.,12.0,0.,12.0,0.,12.0,0.,12.0
1979-07-27 18:45:40.740 ,4,1,0.,12.0,0.,12.0,0.,12.0,0.,12.0
1979-07-27 18:45:52.740 ,4,1,0.,12.0,0.,12.0,0.,12.0,0.,12.0
1979-07-27 18:46:04.740 ,7,1,0.,12.0,0.,12.0,0.,12.0,0.,12.0
1979-07-27 18:46:16.740 ,7,1,0.,12.0,0.,12.0,0.,12.0,0.,12.0
1979-07-27 18:46:28.740 ,3,1,0.,12.0,0.,12.0,0.,12.0,0.,12.0
1979-07-27 18:46:40.740 ,3,1,0.,12.0,0.,12.0,0.,12.0,0.,12.0
1979-07-27 18:46:52.740 ,0,1,0.,12.0,0.,12.0,0.,12.0,0.,12.0
1979-07-27 18:47:04.740 ,0,1,0.,12.0,0.,12.0,0.,12.0,0.,12.0
1979-07-27 18:47:16.740 ,4,1,0.,12.0,0.,12.0,0.,12.0,0.,12.0
1979-07-27 18:47:28.740 ,4,1,0.,12.0,0.,12.0,0.,12.0,0.,12.0
1979-07-27 18:47:40.740 ,7,1,0.,12.0,0.,12.0,0.,12.0,0.,12.0
1979-07-27 18:47:52.740 ,7,1,0.,12.0,0.,12.0,0.,12.0,0.,12.0
1979-07-27 18:48:04.740 ,3,1,0.,12.0,0.,12.0,0.,12.0,0.,12.0
1979-07-27 18:48:16.740 ,3,1,0.,12.0,0.,12.0,0.,12.0,0.,12.0
1979-07-27 18:48:28.740 ,0,1,0.,12.0,0.,12.0,0.,12.0,0.,12.0
1979-07-27 18:48:40.740 ,0,1,0.,12.0,0.,12.0,0.,12.0,0.,12.0
1979-07-27 18:48:52.740 ,4,1,0.,12.0,0.,12.0,0.,12.0,0.,12.0
1979-07-27 18:49:04.740 ,4,1,0.,12.0,0.,12.0,0.,12.0,0.,12.0
1979-07-27 18:49:16.740 ,7,1,0.,12.0,0.,12.0,0.,12.0,0.,12.0
1979-07-27 18:49:28.740 ,7,1,0.,12.0,0.,12.0,0.,12.0,0.,12.0
1979-07-27 18:49:40.740 ,3,1,0.,12.0,0.,12.0,0.,12.0,0.,12.0
1979-07-27 18:49:52.740 ,3,1,0.,12.0,0.,12.0,0.,12.0,0.,12.0
1979-07-27 18:50:04.740 ,0,1,0.,12.0,0.,12.0,0.,12.0,0.,12.0
1979-07-27 18:50:16.740 ,0,1,0.,12.0,0.,12.0,0.,12.0,0.,12.0
1979-07-27 18:50:28.740 ,4,1,0.,12.0,0.,12.0,0.,12.0,0.,12.0
1979-07-27 18:50:40.740 ,4,1,0.,12.0,0.,12.0,0.,12.0,0.,12.0
1979-07-27 18:50:52.740 ,7,1,0.,12.0,0.,12.0,0.,12.0,0.,12.0
1979-07-27 18:51:04.740 ,7,1,0.,12.0,0.,12.0,0.,12.0,0.,12.0
1979-07-27 18:51:16.740 ,3,1,0.,12.0,0.,12.0,0.,12.0,0.,12.0
1979-07-27 18:51:28.740 ,3,1,0.,12.0,0.,12.0,0.,12.0,0.,12.0
1979-07-27 18:51:40.740 ,0,1,0.,12.0,0.,12.0,0.,12.0,0.,12.0
1979-07-27 18:51:52.740 ,0,1,0.,12.0,0.,12.0,0.,12.0,0.,12.0
1979-07-27 18:52:04.740 ,4,1,0.,12.0,0.,12.0,0.,12.0,0.,12.0
1979-07-27 18:52:16.740 ,4,1,0.,12.0,0.,12.0,0.,12.0,0.,12.0
1979-07-27 18:52:28.740 ,7,1,0.,12.0,0.,12.0,0.,12.0,0.,12.0
1979-07-27 18:52:40.740 ,7,1,0.,12.0,0.,12.0,0.,12.0,0.,12.0
1979-07-27 18:52:52.740 ,3,1,0.,12.0,0.,12.0,0.,12.0,0.,12.0
1979-07-27 18:53:04.740 ,3,1,0.,12.0,0.,12.0,0.,12.0,0.,12.0
1979-07-27 18:53:16.740 ,0,1,0.,12.0,0.,12.0,0.,12.0,0.,12.0
1979-07-27 18:53:28.740 ,0,1,0.,12.0,0.,12.0,0.,12.0,0.,12.0
1979-07-27 18:53:40.740 ,0,0,0.,12.0,0.,12.0,0.,12.0,0.,12.0
1979-07-27 18:53:52.740 ,0,0,0.,12.0,0.,12.0,0.,12.0,0.,12.0
1979-07-27 18:54:04.740 ,0,0,0.,12.0,0.,12.0,0.,12.0,0.,12.0
1979-07-27 18:54:16.740 ,0,0,0.,12.0,0.,12.0,0.,12.0,0.,12.0
1979-07-27 18:54:28.740 ,5,0,0.,12.0,0.,12.0,0.,12.0,0.,12.0
1979-07-27 18:54:40.740 ,5,0,0.,12.0,0.,12.0,0.,12.0,0.,12.0
1979-07-27 18:54:52.740 ,5,0,0.,12.0,0.,12.0,0.,12.0,0.,12.0
1979-07-27 18:55:04.740 ,5,0,0.,12.0,0.,12.0,0.,12.0,0.,12.0
1979-07-27 18:55:16.740 ,4,0,0.,12.0,0.,12.0,0.,12.0,0.,12.0
1979-07-27 18:55:28.740 ,4,0,0.,12.0,0.,12.0,0.,12.0,0.,12.0
1979-07-27 18:55:40.740 ,4,0,0.,12.0,0.,12.0,0.,12.0,0.,12.0
1979-07-27 18:55:52.740 ,4,0,0.,12.0,0.,12.0,0.,12.0,0.,12.0
1979-07-27 18:56:04.740 ,3,0,0.,12.0,0.,12.0,0.,12.0,0.,12.0
1979-07-27 18:56:16.740 ,3,0,0.,12.0,0.,12.0,0.,12.0,0.,12.0
1979-07-27 18:56:28.740 ,3,0,0.,12.0,0.,12.0,0.,12.0,0.,12.0
1979-07-27 18:56:40.740 ,3,0,0.,12.0,0.,12.0,0.,12.0,0.,12.0
1979-07-27 18:56:52.740 ,2,0,0.,12.0,0.,12.0,0.,12.0,0.,12.0
1979-07-27 18:57:04.740 ,2,0,0.,12.0,0.,12.0,0.,12.0,0.,12.0
1979-07-27 18:57:16.740 ,2,0,0.,12.0,0.,12.0,0.,12.0,0.,12.0
1979-07-27 18:57:28.740 ,2,0,0.,12.0,0.,12.0,0.,12.0,0.,12.0
1979-07-27 18:57:40.740 ,1,0,0.,12.0,0.,12.0,0.,12.0,0.,12.0
1979-07-27 18:57:52.740 ,1,0,0.,12.0,0.,12.0,0.,12.0,0.,12.0
1979-07-27 18:58:04.740 ,1,0,0.,12.0,0.,12.0,0.,12.0,0.,12.0
1979-07-27 18:58:16.740 ,1,0,0.,12.0,0.,12.0,0.,12.0,0.,12.0
1979-07-27 18:58:28.740 ,0,0,0.,12.0,0.,12.0,0.,12.0,0.,12.0
1979-07-27 18:58:40.740 ,0,0,0.,12.0,0.,12.0,0.,12.0,0.,12.0
1979-07-27 18:58:52.740 ,0,0,0.,12.0,0.,12.0,0.,12.0,0.,12.0
1979-07-27 18:59:04.740 ,0,0,0.,12.0,0.,12.0,0.,12.0,0.,12.0
1979-07-27 18:59:16.740 ,0,0,0.,12.0,0.,12.0,0.,12.0,0.,12.0
1979-07-27 18:59:28.740 ,0,0,0.,12.0,0.,12.0,0.,12.0,0.,12.0
1979-07-27 18:59:40.740 ,0,0,0.,12.0,0.,12.0,0.,12.0,0.,12.0
1979-07-27 18:59:52.740 ,0,0,0.,12.0,0.,12.0,0.,12.0,0.,12.0
1979-07-27 19:00:04.740 ,1,0,0.,12.0,0.,12.0,0.,12.0,0.,12.0
1979-07-27 19:00:16.740 ,1,0,0.,12.0,0.,12.0,0.,12.0,0.,12.0
1979-07-27 19:00:28.740 ,1,0,0.,12.0,0.,12.0,0.,12.0,0.,12.0
1979-07-27 19:00:40.740 ,1,0,0.,12.0,0.,12.0,0.,12.0,0.,12.0
1979-07-27 19:00:52.740 ,2,0,0.,12.0,0.,12.0,0.,12.0,0.,12.0
1979-07-27 19:01:04.740 ,2,0,0.,12.0,0.,12.0,0.,12.0,0.,12.0
1979-07-27 19:01:16.740 ,2,0,0.,12.0,0.,12.0,0.,12.0,0.,12.0
1979-07-27 19:01:28.740 ,2,0,0.,12.0,0.,12.0,0.,12.0,0.,12.0
1979-07-27 19:01:40.740 ,3,0,0.,12.0,0.,12.0,0.,12.0,0.,12.0
1979-07-27 19:01:52.740 ,3,0,0.,12.0,0.,12.0,0.,12.0,0.,12.0
1979-07-27 19:02:04.740 ,3,0,0.,12.0,0.,12.0,0.,12.0,0.,12.0
1979-07-27 19:02:16.740 ,3,0,0.,12.0,0.,12.0,0.,12.0,0.,12.0
1979-07-27 19:02:28.740 ,4,0,0.,12.0,0.,12.0,0.,12.0,0.,12.0
1979-07-27 19:02:40.740 ,4,0,0.,12.0,0.,12.0,0.,12.0,0.,12.0
1979-07-27 19:02:52.740 ,4,0,0.,12.0,0.,12.0,0.,12.0,0.,12.0
1979-07-27 19:03:04.740 ,4,0,0.,12.0,0.,12.0,0.,12.0,0.,12.0
1979-07-27 19:03:16.740 ,5,0,0.,12.0,0.,12.0,0.,12.0,0.,12.0
1979-07-27 19:03:28.740 ,5,0,0.,12.0,0.,12.0,0.,12.0,0.,12.0
1979-07-27 19:03:40.740 ,5,0,0.,12.0,0.,12.0,0.,12.0,0.,12.0
1979-07-27 19:03:52.740 ,5,0,0.,12.0,0.,12.0,0.,12.0,0.,12.0
1979-07-27 19:04:04.740 ,6,0,0.,12.0,0.,12.0,0.,12.0,0.,12.0
1979-07-27 19:04:16.740 ,6,0,0.,12.0,0.,12.0,0.,12.0,0.,12.0
1979-07-27 19:04:28.740 ,6,0,0.,12.0,0.,12.0,0.,12.0,0.,12.0
1979-07-27 19:04:40.740 ,6,0,0.,12.0,0.,12.0,0.,12.0,0.,12.0
1979-07-27 19:04:52.740 ,7,0,0.,12.0,0.,12.0,0.,12.0,0.,12.0
1979-07-27 19:05:04.740 ,7,0,0.,12.0,0.,12.0,0.,12.0,0.,12.0
1979-07-27 19:05:16.740 ,7,0,0.,12.0,0.,12.0,0.,12.0,0.,12.0
1979-07-27 19:05:28.740 ,7,0,0.,12.0,0.,12.0,0.,12.0,0.,12.0
1979-07-27 19:05:40.740 ,7,0,0.,12.0,0.,12.0,0.,12.0,0.,12.0
1979-07-27 19:05:52.740 ,7,0,0.,12.0,0.,12.0,0.,12.0,0.,12.0
1979-07-27 19:06:04.740 ,7,0,0.,12.0,0.,12.0,0.,12.0,0.,12.0
1979-07-27 19:06:16.740 ,7,0,0.,12.0,0.,12.0,0.,12.0,0.,12.0
1979-07-27 19:06:28.740 ,6,0,0.,12.0,0.,12.0,0.,12.0,0.,12.0
1979-07-27 19:06:40.740 ,6,0,0.,12.0,0.,12.0,0.,12.0,0.,12.0
1979-07-27 19:06:52.740 ,6,0,0.,12.0,0.,12.0,0.,12.0,0.,12.0
1979-07-27 19:07:04.740 ,6,0,0.,12.0,0.,12.0,0.,12.0,0.,12.0
1979-07-27 19:07:16.740 ,5,0,0.,12.0,0.,12.0,0.,12.0,0.,12.0
1979-07-27 19:07:28.740 ,5,0,0.,12.0,0.,12.0,0.,12.0,0.,12.0
1979-07-27 19:07:40.740 ,5,0,0.,12.0,0.,12.0,0.,12.0,0.,12.0
1979-07-27 19:07:52.740 ,5,0,0.,12.0,0.,12.0,0.,12.0,0.,12.0
1979-07-27 19:08:04.740 ,4,0,0.,12.0,0.,12.0,0.,12.0,0.,12.0
1979-07-27 19:08:16.740 ,4,0,0.,12.0,0.,12.0,0.,12.0,0.,12.0
1979-07-27 19:08:28.740 ,4,0,0.,12.0,0.,12.0,0.,12.0,0.,12.0
1979-07-27 19:08:40.740 ,4,0,0.,12.0,0.,12.0,0.,12.0,0.,12.0
1979-07-27 19:08:52.740 ,3,0,0.,12.0,0.,12.0,0.,12.0,0.,12.0
1979-07-27 19:09:04.740 ,3,0,0.,12.0,0.,12.0,0.,12.0,0.,12.0
1979-07-27 19:09:16.740 ,3,0,0.,12.0,0.,12.0,0.,12.0,0.,12.0
1979-07-27 19:09:28.740 ,3,0,0.,12.0,0.,12.0,0.,12.0,0.,12.0
1979-07-27 19:09:40.740 ,2,0,0.,12.0,0.,12.0,0.,12.0,0.,12.0
1979-07-27 19:09:52.740 ,2,0,0.,12.0,0.,12.0,0.,12.0,0.,12.0
1979-07-27 19:10:04.740 ,2,0,0.,12.0,0.,12.0,0.,12.0,0.,12.0
1979-07-27 19:10:16.740 ,2,0,0.,12.0,0.,12.0,0.,12.0,0.,12.0
1979-07-27 19:10:28.740 ,1,0,0.,12.0,0.,12.0,0.,12.0,0.,12.0
1979-07-27 19:10:40.740 ,1,0,0.,12.0,0.,12.0,0.,12.0,0.,12.0
1979-07-27 19:10:52.740 ,1,0,0.,12.0,0.,12.0,0.,12.0,0.,12.0
1979-07-27 19:11:04.740 ,1,0,0.,12.0,0.,12.0,0.,12.0,0.,12.0
1979-07-27 19:11:16.740 ,0,0,0.,12.0,0.,12.0,0.,12.0,0.,12.0
1979-07-27 19:11:28.740 ,0,0,0.,12.0,0.,12.0,0.,12.0,0.,12.0
1979-07-27 19:11:40.740 ,0,0,0.,12.0,0.,12.0,0.,12.0,0.,12.0
1979-07-27 19:11:52.740 ,0,0,0.,12.0,0.,12.0,0.,12.0,0.,12.0
1979-07-27 19:12:04.740 ,0,0,0.,12.0,0.,12.0,0.,12.0,0.,12.0
1979-07-27 19:12:16.740 ,0,0,0.,12.0,0.,12.0,0.,12.0,0.,12.0
1979-07-27 19:12:28.740 ,0,0,0.,12.0,0.,12.0,0.,12.0,0.,12.0
1979-07-27 19:12:40.740 ,0,0,0.,12.0,0.,12.0,0.,12.0,0.,12.0
1979-07-27 19:12:52.740 ,1,0,0.,12.0,0.,12.0,0.,12.0,0.,12.0
1979-07-27 19:13:04.740 ,1,0,0.,12.0,0.,12.0,0.,12.0,0.,12.0
1979-07-27 19:13:16.740 ,1,0,0.,12.0,0.,12.0,0.,12.0,0.,12.0
1979-07-27 19:13:28.740 ,1,0,0.,12.0,0.,12.0,0.,12.0,0.,12.0
1979-07-27 19:13:40.740 ,2,0,0.,12.0,0.,12.0,0.,12.0,0.,12.0
1979-07-27 19:13:52.740 ,2,0,0.,12.0,0.,12.0,0.,12.0,0.,12.0
1979-07-27 19:14:04.740 ,2,0,0.,12.0,0.,12.0,0.,12.0,0.,12.0
1979-07-27 19:14:16.740 ,2,0,0.,12.0,0.,12.0,0.,12.0,0.,12.0
1979-07-27 19:14:28.740 ,3,0,0.,12.0,0.,12.0,0.,12.0,0.,12.0
1979-07-27 19:14:40.740 ,3,0,0.,12.0,0.,12.0,0.,12.0,0.,12.0
1979-07-27 19:14:52.740 ,3,0,0.,12.0,0.,12.0,0.,12.0,0.,12.0
1979-07-27 19:15:04.740 ,3,0,0.,12.0,0.,12.0,0.,12.0,0.,12.0
1979-07-27 19:15:16.740 ,4,0,0.,12.0,0.,12.0,0.,12.0,0.,12.0
1979-07-27 19:15:28.740 ,4,0,0.,12.0,0.,12.0,0.,12.0,0.,12.0
1979-07-27 19:15:40.740 ,4,0,0.,12.0,0.,12.0,0.,12.0,0.,12.0
1979-07-27 19:15:52.740 ,4,0,0.,12.0,0.,12.0,0.,12.0,0.,12.0
1979-07-27 19:16:04.740 ,5,0,0.,12.0,0.,12.0,0.,12.0,0.,12.0
1979-07-27 19:16:16.740 ,5,0,0.,12.0,0.,12.0,0.,12.0,0.,12.0
1979-07-27 19:16:28.740 ,5,0,0.,12.0,0.,12.0,0.,12.0,0.,12.0
1979-07-27 19:16:40.740 ,5,0,0.,12.0,0.,12.0,0.,12.0,0.,12.0
1979-07-27 19:16:52.740 ,6,0,0.,12.0,0.,12.0,0.,12.0,0.,12.0
1979-07-27 19:17:04.740 ,6,0,0.,12.0,0.,12.0,0.,12.0,0.,12.0
1979-07-27 19:17:16.740 ,6,0,0.,12.0,0.,12.0,0.,12.0,0.,12.0
1979-07-27 19:17:28.740 ,6,0,0.,12.0,0.,12.0,0.,12.0,0.,12.0